Year,Month,Day,Hour,Minute,Value (Times are PST for temperature in C)
2007,12,03,00,00,0.10
2007,12,03,00,01,0.20
2007,12,03,00,02,0.20
2007,12,03,00,03,0.20
2007,12,03,00,04,0.20
2007,12,03,00,05,0.20
2007,12,03,00,06,0.20
2007,12,03,00,07,0.20
2007,12,03,00,08,0.20
2007,12,03,00,09,0.20
2007,12,03,00,10,0.20
2007,12,03,00,11,0.20
2007,12,03,00,12,0.20
2007,12,03,00,13,0.20
2007,12,03,00,14,0.20
2007,12,03,00,15,0.20
2007,12,03,00,16,0.20
2007,12,03,00,17,0.20
2007,12,03,00,18,0.20
2007,12,03,00,19,0.20
2007,12,03,00,20,0.20
2007,12,03,00,21,0.20
2007,12,03,00,22,0.20
2007,12,03,00,23,0.20
2007,12,03,00,24,0.20
2007,12,03,00,25,0.20
2007,12,03,00,26,0.20
2007,12,03,00,27,0.20
2007,12,03,00,28,0.20
2007,12,03,00,29,0.20
2007,12,03,00,30,0.20
2007,12,03,00,31,0.20
2007,12,03,00,32,0.20
2007,12,03,00,33,0.20
2007,12,03,00,34,0.20
2007,12,03,00,35,0.10
2007,12,03,00,36,0.20
2007,12,03,00,37,0.20
2007,12,03,00,38,0.20
2007,12,03,00,39,0.20
2007,12,03,00,40,0.20
2007,12,03,00,41,0.20
2007,12,03,00,42,0.20
2007,12,03,00,43,0.20
2007,12,03,00,44,0.20
2007,12,03,00,45,0.20
2007,12,03,00,46,0.20
2007,12,03,00,47,0.20
2007,12,03,00,48,0.20
2007,12,03,00,49,0.20
2007,12,03,00,50,0.20
2007,12,03,00,51,0.20
2007,12,03,00,52,0.20
2007,12,03,00,53,0.20
2007,12,03,00,54,0.20
2007,12,03,00,55,0.20
2007,12,03,00,56,0.20
2007,12,03,00,57,0.20
2007,12,03,00,58,0.20
2007,12,03,00,59,0.20
2007,12,03,01,00,0.20
2007,12,03,01,01,0.20
2007,12,03,01,02,0.20
2007,12,03,01,03,0.20
2007,12,03,01,04,0.20
2007,12,03,01,05,0.20
2007,12,03,01,06,0.20
2007,12,03,01,07,0.20
2007,12,03,01,08,0.20
2007,12,03,01,09,0.20
2007,12,03,01,10,0.30
2007,12,03,01,11,0.30
2007,12,03,01,12,0.30
2007,12,03,01,13,0.30
2007,12,03,01,14,0.30
2007,12,03,01,15,0.30
2007,12,03,01,16,0.30
2007,12,03,01,17,0.30
2007,12,03,01,18,0.30
2007,12,03,01,19,0.30
2007,12,03,01,20,0.30
2007,12,03,01,21,0.30
2007,12,03,01,22,0.30
2007,12,03,01,23,0.30
2007,12,03,01,24,0.30
2007,12,03,01,25,0.30
2007,12,03,01,26,0.30
2007,12,03,01,27,0.30
2007,12,03,01,28,0.30
2007,12,03,01,29,0.30
2007,12,03,01,30,0.30
2007,12,03,01,31,0.30
2007,12,03,01,32,0.40
2007,12,03,01,33,0.40
2007,12,03,01,34,0.40
2007,12,03,01,35,0.40
2007,12,03,01,36,0.40
2007,12,03,01,37,0.40
2007,12,03,01,38,0.40
2007,12,03,01,39,0.40
2007,12,03,01,40,0.40
2007,12,03,01,41,0.40
2007,12,03,01,42,0.40
2007,12,03,01,43,0.40
2007,12,03,01,44,0.40
2007,12,03,01,45,0.40
2007,12,03,01,46,0.40
2007,12,03,01,47,0.40
2007,12,03,01,48,0.40
2007,12,03,01,49,0.40
2007,12,03,01,50,0.50
2007,12,03,01,51,0.50
2007,12,03,01,52,0.50
2007,12,03,01,53,0.60
2007,12,03,01,54,0.60
2007,12,03,01,55,0.60
2007,12,03,01,56,0.60
2007,12,03,01,57,0.60
2007,12,03,01,58,0.60
2007,12,03,01,59,0.60
2007,12,03,02,00,0.60
2007,12,03,02,01,0.60
2007,12,03,02,02,0.60
2007,12,03,02,03,0.60
2007,12,03,02,04,0.50
2007,12,03,02,05,0.50
2007,12,03,02,06,0.50
2007,12,03,02,07,0.50
2007,12,03,02,08,0.50
2007,12,03,02,09,0.50
2007,12,03,02,10,0.50
2007,12,03,02,11,0.50
2007,12,03,02,12,0.40
2007,12,03,02,13,0.40
2007,12,03,02,14,0.40
2007,12,03,02,15,0.40
2007,12,03,02,16,0.40
2007,12,03,02,17,0.40
2007,12,03,02,18,0.40
2007,12,03,02,19,0.60
2007,12,03,02,20,0.70
2007,12,03,02,21,0.70
2007,12,03,02,22,0.80
2007,12,03,02,23,0.80
2007,12,03,02,24,0.80
2007,12,03,02,25,0.90
2007,12,03,02,26,0.90
2007,12,03,02,27,0.80
2007,12,03,02,28,0.80
2007,12,03,02,29,0.80
2007,12,03,02,30,0.80
2007,12,03,02,31,0.70
2007,12,03,02,32,0.70
2007,12,03,02,33,0.60
2007,12,03,02,34,0.60
2007,12,03,02,35,0.60
2007,12,03,02,36,0.50
2007,12,03,02,37,0.50
2007,12,03,02,38,0.50
2007,12,03,02,39,0.40
2007,12,03,02,40,0.40
2007,12,03,02,41,0.40
2007,12,03,02,42,0.40
2007,12,03,02,43,0.40
2007,12,03,02,44,0.40
2007,12,03,02,45,0.40
2007,12,03,02,46,0.40
2007,12,03,02,47,0.40
2007,12,03,02,48,0.30
2007,12,03,02,49,0.30
2007,12,03,02,50,0.30
2007,12,03,02,51,0.30
2007,12,03,02,52,0.40
2007,12,03,02,53,0.60
2007,12,03,02,54,0.80
2007,12,03,02,55,0.90
2007,12,03,02,56,1.00
2007,12,03,02,57,1.00
2007,12,03,02,58,1.10
2007,12,03,02,59,1.10
2007,12,03,03,00,1.10
2007,12,03,03,01,1.20
2007,12,03,03,02,1.30
2007,12,03,03,03,1.30
2007,12,03,03,04,1.40
2007,12,03,03,05,1.40
2007,12,03,03,06,1.50
2007,12,03,03,07,1.40
2007,12,03,03,08,1.50
2007,12,03,03,09,1.40
2007,12,03,03,10,1.50
2007,12,03,03,11,1.50
2007,12,03,03,12,1.60
2007,12,03,03,13,1.50
2007,12,03,03,14,1.50
2007,12,03,03,15,1.60
2007,12,03,03,16,1.50
2007,12,03,03,17,1.40
2007,12,03,03,18,1.30
2007,12,03,03,19,1.40
2007,12,03,03,20,1.40
2007,12,03,03,21,1.40
2007,12,03,03,22,1.40
2007,12,03,03,23,1.40
2007,12,03,03,24,1.30
2007,12,03,03,25,1.30
2007,12,03,03,26,1.30
2007,12,03,03,27,1.30
2007,12,03,03,28,1.30
2007,12,03,03,29,1.30
2007,12,03,03,30,1.30
2007,12,03,03,31,1.30
2007,12,03,03,32,1.30
2007,12,03,03,33,1.30
2007,12,03,03,34,1.30
2007,12,03,03,35,1.20
2007,12,03,03,36,1.10
2007,12,03,03,37,1.10
2007,12,03,03,38,1.20
2007,12,03,03,39,1.30
2007,12,03,03,40,1.20
2007,12,03,03,41,1.30
2007,12,03,03,42,1.30
2007,12,03,03,43,1.40
2007,12,03,03,44,1.40
2007,12,03,03,45,1.30
2007,12,03,03,46,1.30
2007,12,03,03,47,1.30
2007,12,03,03,48,1.30
2007,12,03,03,49,1.30
2007,12,03,03,50,1.50
2007,12,03,03,51,1.60
2007,12,03,03,52,1.60
2007,12,03,03,53,1.60
2007,12,03,03,54,1.70
2007,12,03,03,55,1.70
2007,12,03,03,56,1.80
2007,12,03,03,57,1.90
2007,12,03,03,58,1.90
2007,12,03,03,59,2.00
2007,12,03,04,00,2.10
2007,12,03,04,01,2.10
2007,12,03,04,02,2.00
2007,12,03,04,03,2.00
2007,12,03,04,04,2.00
2007,12,03,04,05,2.00
2007,12,03,04,06,2.10
2007,12,03,04,07,2.20
2007,12,03,04,08,2.20
2007,12,03,04,09,2.20
2007,12,03,04,10,2.20
2007,12,03,04,11,2.20
2007,12,03,04,12,2.20
2007,12,03,04,13,2.20
2007,12,03,04,14,2.20
2007,12,03,04,15,2.20
2007,12,03,04,16,2.30
2007,12,03,04,17,2.30
2007,12,03,04,18,2.30
2007,12,03,04,19,2.40
2007,12,03,04,20,2.50
2007,12,03,04,21,2.60
2007,12,03,04,22,2.60
2007,12,03,04,23,2.70
2007,12,03,04,24,2.70
2007,12,03,04,25,2.80
2007,12,03,04,26,2.80
2007,12,03,04,27,2.90
2007,12,03,04,28,2.90
2007,12,03,04,29,2.80
2007,12,03,04,30,2.80
2007,12,03,04,31,2.80
2007,12,03,04,32,2.70
2007,12,03,04,33,2.70
2007,12,03,04,34,2.70
2007,12,03,04,35,2.70
2007,12,03,04,36,2.60
2007,12,03,04,37,2.60
2007,12,03,04,38,2.70
2007,12,03,04,39,2.70
2007,12,03,04,40,2.80
2007,12,03,04,41,3.10
2007,12,03,04,42,3.20
2007,12,03,04,43,3.20
2007,12,03,04,44,3.20
2007,12,03,04,45,3.20
2007,12,03,04,46,3.20
2007,12,03,04,47,3.20
2007,12,03,04,48,3.30
2007,12,03,04,49,3.30
2007,12,03,04,50,3.40
2007,12,03,04,51,3.40
2007,12,03,04,52,3.40
2007,12,03,04,53,3.50
2007,12,03,04,54,3.60
2007,12,03,04,55,3.60
2007,12,03,04,56,3.60
2007,12,03,04,57,3.60
2007,12,03,04,58,3.60
2007,12,03,04,59,3.60
2007,12,03,05,00,3.50
2007,12,03,05,01,3.50
2007,12,03,05,02,3.50
2007,12,03,05,03,3.70
2007,12,03,05,04,3.70
2007,12,03,05,05,3.70
2007,12,03,05,06,3.70
2007,12,03,05,07,3.80
2007,12,03,05,08,3.80
2007,12,03,05,09,3.80
2007,12,03,05,10,3.90
2007,12,03,05,11,4.00
2007,12,03,05,12,4.10
2007,12,03,05,13,4.10
2007,12,03,05,14,4.20
2007,12,03,05,15,4.20
2007,12,03,05,16,4.20
2007,12,03,05,17,4.30
2007,12,03,05,18,4.20
2007,12,03,05,19,4.20
2007,12,03,05,20,4.20
2007,12,03,05,21,4.20
2007,12,03,05,22,4.30
2007,12,03,05,23,4.40
2007,12,03,05,24,4.40
2007,12,03,05,25,4.40
2007,12,03,05,26,4.40
2007,12,03,05,27,4.40
2007,12,03,05,28,4.50
2007,12,03,05,29,4.50
2007,12,03,05,30,4.50
2007,12,03,05,31,4.50
2007,12,03,05,32,4.60
2007,12,03,05,33,4.60
2007,12,03,05,34,4.70
2007,12,03,05,35,4.70
2007,12,03,05,36,4.70
2007,12,03,05,37,4.70
2007,12,03,05,38,4.70
2007,12,03,05,39,4.70
2007,12,03,05,40,4.70
2007,12,03,05,41,4.70
2007,12,03,05,42,4.70
2007,12,03,05,43,4.70
2007,12,03,05,44,4.70
2007,12,03,05,45,4.70
2007,12,03,05,46,4.80
2007,12,03,05,47,4.70
2007,12,03,05,48,4.70
2007,12,03,05,49,4.70
2007,12,03,05,50,4.70
2007,12,03,05,51,4.80
2007,12,03,05,52,4.80
2007,12,03,05,53,4.90
2007,12,03,05,54,4.80
2007,12,03,05,55,4.80
2007,12,03,05,56,4.80
2007,12,03,05,57,4.80
2007,12,03,05,58,4.70
2007,12,03,05,59,4.70
2007,12,03,06,00,4.80
2007,12,03,06,01,4.80
2007,12,03,06,02,4.80
2007,12,03,06,03,4.80
2007,12,03,06,04,4.80
2007,12,03,06,05,4.80
2007,12,03,06,06,4.90
2007,12,03,06,07,4.90
2007,12,03,06,08,4.80
2007,12,03,06,09,4.80
2007,12,03,06,10,4.80
2007,12,03,06,11,4.80
2007,12,03,06,12,4.80
2007,12,03,06,13,4.90
2007,12,03,06,14,5.00
2007,12,03,06,15,5.00
2007,12,03,06,16,5.00
2007,12,03,06,17,5.00
2007,12,03,06,18,5.00
2007,12,03,06,19,5.00
2007,12,03,06,20,5.10
2007,12,03,06,21,5.00
2007,12,03,06,22,5.00
2007,12,03,06,23,4.90
2007,12,03,06,24,4.90
2007,12,03,06,25,4.90
2007,12,03,06,26,4.90
2007,12,03,06,27,4.90
2007,12,03,06,28,4.90
2007,12,03,06,29,5.00
2007,12,03,06,30,4.90
2007,12,03,06,31,4.90
2007,12,03,06,32,5.00
2007,12,03,06,33,4.90
2007,12,03,06,34,4.90
2007,12,03,06,35,5.00
2007,12,03,06,36,5.10
2007,12,03,06,37,5.10
2007,12,03,06,38,5.20
2007,12,03,06,39,5.20
2007,12,03,06,40,5.20
2007,12,03,06,41,5.20
2007,12,03,06,42,5.20
2007,12,03,06,43,5.30
2007,12,03,06,44,5.30
2007,12,03,06,45,5.30
2007,12,03,06,46,5.30
2007,12,03,06,47,5.30
2007,12,03,06,48,5.40
2007,12,03,06,49,5.50
2007,12,03,06,50,5.50
2007,12,03,06,51,5.50
2007,12,03,06,52,5.60
2007,12,03,06,53,5.60
2007,12,03,06,54,5.70
2007,12,03,06,55,5.70
2007,12,03,06,56,5.70
2007,12,03,06,57,5.60
2007,12,03,06,58,5.70
2007,12,03,06,59,5.70
2007,12,03,07,00,5.70
2007,12,03,07,01,5.80
2007,12,03,07,02,5.90
2007,12,03,07,03,5.90
2007,12,03,07,04,5.90
2007,12,03,07,05,6.00
2007,12,03,07,06,6.00
2007,12,03,07,07,6.00
2007,12,03,07,08,6.00
2007,12,03,07,09,6.00
2007,12,03,07,10,6.10
2007,12,03,07,11,6.10
2007,12,03,07,12,6.00
2007,12,03,07,13,6.00
2007,12,03,07,14,6.10
2007,12,03,07,15,6.10
2007,12,03,07,16,6.10
2007,12,03,07,17,6.10
2007,12,03,07,18,6.20
2007,12,03,07,19,6.10
2007,12,03,07,20,6.20
2007,12,03,07,21,6.20
2007,12,03,07,22,6.20
2007,12,03,07,23,6.10
2007,12,03,07,24,6.20
2007,12,03,07,25,6.20
2007,12,03,07,26,6.20
2007,12,03,07,27,6.20
2007,12,03,07,28,6.30
2007,12,03,07,29,6.30
2007,12,03,07,30,6.20
2007,12,03,07,31,6.10
2007,12,03,07,32,6.20
2007,12,03,07,33,6.30
2007,12,03,07,34,6.30
2007,12,03,07,35,6.30
2007,12,03,07,36,6.30
2007,12,03,07,37,6.40
2007,12,03,07,38,6.40
2007,12,03,07,39,6.40
2007,12,03,07,40,6.40
2007,12,03,07,41,6.40
2007,12,03,07,42,6.40
2007,12,03,07,43,6.40
2007,12,03,07,44,6.40
2007,12,03,07,45,6.50
2007,12,03,07,46,6.60
2007,12,03,07,47,6.60
2007,12,03,07,48,6.60
2007,12,03,07,49,6.60
2007,12,03,07,50,6.70
2007,12,03,07,51,6.60
2007,12,03,07,52,6.60
2007,12,03,07,53,6.70
2007,12,03,07,54,6.70
2007,12,03,07,55,6.80
2007,12,03,07,56,6.80
2007,12,03,07,57,6.70
2007,12,03,07,58,6.70
2007,12,03,07,59,6.70
2007,12,03,08,00,6.80
2007,12,03,08,01,6.80
2007,12,03,08,02,6.80
2007,12,03,08,03,6.80
2007,12,03,08,04,6.80
2007,12,03,08,05,6.90
2007,12,03,08,06,6.90
2007,12,03,08,07,6.90
2007,12,03,08,08,7.00
2007,12,03,08,09,7.00
2007,12,03,08,10,7.10
2007,12,03,08,11,7.10
2007,12,03,08,12,7.10
2007,12,03,08,13,7.10
2007,12,03,08,14,7.10
2007,12,03,08,15,7.20
2007,12,03,08,16,7.20
2007,12,03,08,17,7.20
2007,12,03,08,18,7.30
2007,12,03,08,19,7.30
2007,12,03,08,20,7.30
2007,12,03,08,21,7.30
2007,12,03,08,22,7.30
2007,12,03,08,23,7.40
2007,12,03,08,24,7.30
2007,12,03,08,25,7.40
2007,12,03,08,26,7.40
2007,12,03,08,27,7.40
2007,12,03,08,28,7.40
2007,12,03,08,29,7.40
2007,12,03,08,30,7.40
2007,12,03,08,31,7.40
2007,12,03,08,32,7.50
2007,12,03,08,33,7.40
2007,12,03,08,34,7.50
2007,12,03,08,35,7.50
2007,12,03,08,36,7.50
2007,12,03,08,37,7.50
2007,12,03,08,38,7.50
2007,12,03,08,39,7.40
2007,12,03,08,40,7.50
2007,12,03,08,41,7.50
2007,12,03,08,42,7.60
2007,12,03,08,43,7.50
2007,12,03,08,44,7.50
2007,12,03,08,45,7.50
2007,12,03,08,46,7.60
2007,12,03,08,47,7.60
2007,12,03,08,48,7.60
2007,12,03,08,49,7.60
2007,12,03,08,50,7.60
2007,12,03,08,51,7.60
2007,12,03,08,52,7.70
2007,12,03,08,53,7.70
2007,12,03,08,54,7.80
2007,12,03,08,55,7.80
2007,12,03,08,56,7.90
2007,12,03,08,57,7.90
2007,12,03,08,58,8.00
2007,12,03,08,59,8.00
2007,12,03,09,00,8.00
2007,12,03,09,01,8.00
2007,12,03,09,02,8.00
2007,12,03,09,03,7.90
2007,12,03,09,04,8.00
2007,12,03,09,05,8.00
2007,12,03,09,06,8.00
2007,12,03,09,07,8.10
2007,12,03,09,08,8.10
2007,12,03,09,09,8.10
2007,12,03,09,10,8.10
2007,12,03,09,11,8.10
2007,12,03,09,12,8.20
2007,12,03,09,13,8.20
2007,12,03,09,14,8.20
2007,12,03,09,15,8.20
2007,12,03,09,16,8.10
2007,12,03,09,17,8.20
2007,12,03,09,18,8.20
2007,12,03,09,19,8.20
2007,12,03,09,20,8.30
2007,12,03,09,21,8.40
2007,12,03,09,22,8.40
2007,12,03,09,23,8.50
2007,12,03,09,24,8.60
2007,12,03,09,25,8.50
2007,12,03,09,26,8.40
2007,12,03,09,27,8.40
2007,12,03,09,28,8.40
2007,12,03,09,29,8.50
2007,12,03,09,30,8.50
2007,12,03,09,31,8.50
2007,12,03,09,32,8.60
2007,12,03,09,33,8.70
2007,12,03,09,34,8.70
2007,12,03,09,35,8.70
2007,12,03,09,36,8.90
2007,12,03,09,37,8.90
2007,12,03,09,38,9.00
2007,12,03,09,39,9.10
2007,12,03,09,40,9.20
2007,12,03,09,41,9.20
2007,12,03,09,42,9.20
2007,12,03,09,43,9.20
2007,12,03,09,44,9.20
2007,12,03,09,45,9.20
2007,12,03,09,46,9.20
2007,12,03,09,47,9.30
2007,12,03,09,48,9.40
2007,12,03,09,49,9.60
2007,12,03,09,50,9.80
2007,12,03,09,51,9.90
2007,12,03,09,52,10.00
2007,12,03,09,53,10.10
2007,12,03,09,54,10.20
2007,12,03,09,55,10.20
2007,12,03,09,56,10.20
2007,12,03,09,57,10.10
2007,12,03,09,58,10.10
2007,12,03,09,59,10.00
2007,12,03,10,00,10.10
2007,12,03,10,01,10.00
2007,12,03,10,02,10.00
2007,12,03,10,03,10.10
2007,12,03,10,04,10.20
2007,12,03,10,05,10.20
2007,12,03,10,06,10.20
2007,12,03,10,07,10.30
2007,12,03,10,08,10.40
2007,12,03,10,09,10.40
2007,12,03,10,10,10.50
2007,12,03,10,11,10.50
2007,12,03,10,12,10.50
2007,12,03,10,13,10.60
2007,12,03,10,14,10.60
2007,12,03,10,15,10.50
2007,12,03,10,16,10.50
2007,12,03,10,17,10.50
2007,12,03,10,18,10.50
2007,12,03,10,19,10.40
2007,12,03,10,20,10.20
2007,12,03,10,21,10.20
2007,12,03,10,22,10.10
2007,12,03,10,23,10.10
2007,12,03,10,24,10.10
2007,12,03,10,25,10.10
2007,12,03,10,26,10.10
2007,12,03,10,27,10.10
2007,12,03,10,28,10.10
2007,12,03,10,29,10.20
2007,12,03,10,30,10.30
2007,12,03,10,31,10.40
2007,12,03,10,32,10.40
2007,12,03,10,33,10.40
2007,12,03,10,34,10.30
2007,12,03,10,35,10.20
2007,12,03,10,36,10.20
2007,12,03,10,37,10.10
2007,12,03,10,38,9.90
2007,12,03,10,39,9.90
2007,12,03,10,40,9.90
2007,12,03,10,41,9.90
2007,12,03,10,42,9.90
2007,12,03,10,43,9.90
2007,12,03,10,44,9.80
2007,12,03,10,45,9.90
2007,12,03,10,46,9.90
2007,12,03,10,47,10.00
2007,12,03,10,48,10.10
2007,12,03,10,49,10.10
2007,12,03,10,50,10.10
2007,12,03,10,51,10.10
2007,12,03,10,52,10.10
2007,12,03,10,53,10.10
2007,12,03,10,54,10.00
2007,12,03,10,55,10.10
2007,12,03,10,56,10.10
2007,12,03,10,57,10.10
2007,12,03,10,58,10.10
2007,12,03,10,59,10.10
2007,12,03,11,00,10.10
2007,12,03,11,01,10.20
2007,12,03,11,02,10.30
2007,12,03,11,03,10.30
2007,12,03,11,04,10.30
2007,12,03,11,05,10.30
2007,12,03,11,06,10.30
2007,12,03,11,07,10.20
2007,12,03,11,08,10.10
2007,12,03,11,09,10.00
2007,12,03,11,10,9.90
2007,12,03,11,11,9.90
2007,12,03,11,12,9.80
2007,12,03,11,13,9.80
2007,12,03,11,14,9.80
2007,12,03,11,15,9.80
2007,12,03,11,16,9.80
2007,12,03,11,17,9.80
2007,12,03,11,18,9.80
2007,12,03,11,19,9.80
2007,12,03,11,20,9.70
2007,12,03,11,21,9.70
2007,12,03,11,22,9.70
2007,12,03,11,23,9.70
2007,12,03,11,24,9.70
2007,12,03,11,25,9.70
2007,12,03,11,26,9.70
2007,12,03,11,27,9.70
2007,12,03,11,28,9.70
2007,12,03,11,29,9.60
2007,12,03,11,30,9.70
2007,12,03,11,31,9.80
2007,12,03,11,32,9.80
2007,12,03,11,33,9.80
2007,12,03,11,34,9.80
2007,12,03,11,35,9.80
2007,12,03,11,36,9.80
2007,12,03,11,37,9.80
2007,12,03,11,38,9.80
2007,12,03,11,39,9.80
2007,12,03,11,40,9.90
2007,12,03,11,41,9.90
2007,12,03,11,42,9.90
2007,12,03,11,43,9.90
2007,12,03,11,44,9.90
2007,12,03,11,45,9.90
2007,12,03,11,46,9.90
2007,12,03,11,47,9.80
2007,12,03,11,48,9.80
2007,12,03,11,49,9.80
2007,12,03,11,50,9.80
2007,12,03,11,51,9.90
2007,12,03,11,52,10.00
2007,12,03,11,53,10.00
2007,12,03,11,54,10.10
2007,12,03,11,55,10.10
2007,12,03,11,56,10.10
2007,12,03,11,57,10.10
2007,12,03,11,58,10.20
2007,12,03,11,59,10.30
2007,12,03,12,00,10.40
2007,12,03,12,01,10.60
2007,12,03,12,02,10.60
2007,12,03,12,03,10.70
2007,12,03,12,04,10.70
2007,12,03,12,05,10.80
2007,12,03,12,06,10.90
2007,12,03,12,07,10.90
2007,12,03,12,08,10.90
2007,12,03,12,09,10.90
2007,12,03,12,10,11.00
2007,12,03,12,11,11.10
2007,12,03,12,12,11.10
2007,12,03,12,13,11.10
2007,12,03,12,14,11.20
2007,12,03,12,15,11.20
2007,12,03,12,16,11.20
2007,12,03,12,17,11.20
2007,12,03,12,18,11.20
2007,12,03,12,19,11.20
2007,12,03,12,20,11.30
2007,12,03,12,21,11.30
2007,12,03,12,22,11.30
2007,12,03,12,23,11.30
2007,12,03,12,24,11.30
2007,12,03,12,25,11.30
2007,12,03,12,26,11.30
2007,12,03,12,27,11.40
2007,12,03,12,28,11.40
2007,12,03,12,29,11.40
2007,12,03,12,30,11.40
2007,12,03,12,31,11.40
2007,12,03,12,32,11.50
2007,12,03,12,33,11.50
2007,12,03,12,34,11.60
2007,12,03,12,35,11.60
2007,12,03,12,36,11.60
2007,12,03,12,37,11.70
2007,12,03,12,38,11.70
2007,12,03,12,39,11.70
2007,12,03,12,40,11.70
2007,12,03,12,41,11.70
2007,12,03,12,42,11.70
2007,12,03,12,43,11.70
2007,12,03,12,44,11.70
2007,12,03,12,45,11.70
2007,12,03,12,46,11.80
2007,12,03,12,47,11.90
2007,12,03,12,48,11.90
2007,12,03,12,49,11.80
2007,12,03,12,50,11.90
2007,12,03,12,51,11.90
2007,12,03,12,52,12.00
2007,12,03,12,53,11.90
2007,12,03,12,54,11.90
2007,12,03,12,55,11.90
2007,12,03,12,56,11.90
2007,12,03,12,57,11.90
2007,12,03,12,58,11.90
2007,12,03,12,59,11.90
2007,12,03,13,00,11.90
2007,12,03,13,01,12.00
2007,12,03,13,02,12.00
2007,12,03,13,03,12.00
2007,12,03,13,04,12.10
2007,12,03,13,05,12.10
2007,12,03,13,06,12.20
2007,12,03,13,07,12.20
2007,12,03,13,08,12.10
2007,12,03,13,09,12.10
2007,12,03,13,10,12.10
2007,12,03,13,11,12.10
2007,12,03,13,12,12.10
2007,12,03,13,13,12.10
2007,12,03,13,14,12.00
2007,12,03,13,15,12.00
2007,12,03,13,16,12.00
2007,12,03,13,17,11.90
2007,12,03,13,18,11.90
2007,12,03,13,19,11.90
2007,12,03,13,20,11.90
2007,12,03,13,21,11.90
2007,12,03,13,22,11.90
2007,12,03,13,23,11.90
2007,12,03,13,24,11.90
2007,12,03,13,25,11.90
2007,12,03,13,26,11.90
2007,12,03,13,27,11.90
2007,12,03,13,28,11.90
2007,12,03,13,29,11.90
2007,12,03,13,30,11.90
2007,12,03,13,31,11.90
2007,12,03,13,32,11.90
2007,12,03,13,33,11.90
2007,12,03,13,34,11.90
2007,12,03,13,35,11.90
2007,12,03,13,36,11.90
2007,12,03,13,37,11.90
2007,12,03,13,38,12.00
2007,12,03,13,39,12.10
2007,12,03,13,40,12.10
2007,12,03,13,41,12.10
2007,12,03,13,42,12.20
2007,12,03,13,43,12.10
2007,12,03,13,44,12.20
2007,12,03,13,45,12.10
2007,12,03,13,46,12.10
2007,12,03,13,47,12.10
2007,12,03,13,48,12.10
2007,12,03,13,49,12.10
2007,12,03,13,50,12.20
2007,12,03,13,51,12.20
2007,12,03,13,52,12.20
2007,12,03,13,53,12.20
2007,12,03,13,54,12.20
2007,12,03,13,55,12.10
2007,12,03,13,56,12.10
2007,12,03,13,57,12.10
2007,12,03,13,58,12.10
2007,12,03,13,59,12.20
2007,12,03,14,00,12.20
2007,12,03,14,01,12.20
2007,12,03,14,02,12.30
2007,12,03,14,03,12.30
2007,12,03,14,04,12.30
2007,12,03,14,05,12.30
2007,12,03,14,06,12.30
2007,12,03,14,07,12.30
2007,12,03,14,08,12.30
2007,12,03,14,09,12.20
2007,12,03,14,10,12.20
2007,12,03,14,11,12.20
2007,12,03,14,12,12.10
2007,12,03,14,13,12.10
2007,12,03,14,14,12.10
2007,12,03,14,15,12.10
2007,12,03,14,16,12.00
2007,12,03,14,17,12.10
2007,12,03,14,18,12.10
2007,12,03,14,19,12.20
2007,12,03,14,20,12.20
2007,12,03,14,21,12.20
2007,12,03,14,22,12.20
2007,12,03,14,23,12.20
2007,12,03,14,24,12.20
2007,12,03,14,25,12.30
2007,12,03,14,26,12.20
2007,12,03,14,27,12.20
2007,12,03,14,28,12.20
2007,12,03,14,29,12.20
2007,12,03,14,30,12.10
2007,12,03,14,31,12.20
2007,12,03,14,32,12.30
2007,12,03,14,33,12.30
2007,12,03,14,34,12.30
2007,12,03,14,35,12.40
2007,12,03,14,36,12.40
2007,12,03,14,37,12.30
2007,12,03,14,38,12.30
2007,12,03,14,39,12.30
2007,12,03,14,40,12.30
2007,12,03,14,41,12.20
2007,12,03,14,42,12.20
2007,12,03,14,43,12.30
2007,12,03,14,44,12.30
2007,12,03,14,45,12.30
2007,12,03,14,46,12.30
2007,12,03,14,47,12.30
2007,12,03,14,48,12.30
2007,12,03,14,49,12.30
2007,12,03,14,50,12.40
2007,12,03,14,51,12.40
2007,12,03,14,52,12.40
2007,12,03,14,53,12.40
2007,12,03,14,54,12.30
2007,12,03,14,55,12.30
2007,12,03,14,56,12.30
2007,12,03,14,57,12.30
2007,12,03,14,58,12.30
2007,12,03,14,59,12.30
2007,12,03,15,00,12.30
2007,12,03,15,01,12.30
2007,12,03,15,02,12.30
2007,12,03,15,03,12.30
2007,12,03,15,04,12.30
2007,12,03,15,05,12.20
2007,12,03,15,06,12.20
2007,12,03,15,07,12.20
2007,12,03,15,08,12.30
2007,12,03,15,09,12.20
2007,12,03,15,10,12.20
2007,12,03,15,11,12.20
2007,12,03,15,12,12.20
2007,12,03,15,13,12.20
2007,12,03,15,14,12.20
2007,12,03,15,15,12.20
2007,12,03,15,16,12.10
2007,12,03,15,17,12.10
2007,12,03,15,18,12.20
2007,12,03,15,19,12.20
2007,12,03,15,20,12.10
2007,12,03,15,21,12.10
2007,12,03,15,22,12.20
2007,12,03,15,23,12.20
2007,12,03,15,24,12.20
2007,12,03,15,25,12.20
2007,12,03,15,26,12.30
2007,12,03,15,27,12.30
2007,12,03,15,28,12.30
2007,12,03,15,29,12.30
2007,12,03,15,30,12.30
2007,12,03,15,31,12.30
2007,12,03,15,32,12.20
2007,12,03,15,33,12.30
2007,12,03,15,34,12.30
2007,12,03,15,35,12.40
2007,12,03,15,36,12.40
2007,12,03,15,37,12.40
2007,12,03,15,38,12.40
2007,12,03,15,39,12.40
2007,12,03,15,40,12.50
2007,12,03,15,41,12.50
2007,12,03,15,42,12.50
2007,12,03,15,43,12.50
2007,12,03,15,44,12.40
2007,12,03,15,45,12.50
2007,12,03,15,46,12.50
2007,12,03,15,47,12.50
2007,12,03,15,48,12.50
2007,12,03,15,49,12.50
2007,12,03,15,50,12.50
2007,12,03,15,51,12.50
2007,12,03,15,52,12.50
2007,12,03,15,53,12.50
2007,12,03,15,54,12.50
2007,12,03,15,55,12.50
2007,12,03,15,56,12.50
2007,12,03,15,57,12.60
2007,12,03,15,58,12.60
2007,12,03,15,59,12.60
2007,12,03,16,00,12.60
2007,12,03,16,01,12.70
2007,12,03,16,02,12.70
2007,12,03,16,03,12.80
2007,12,03,16,04,12.70
2007,12,03,16,05,12.70
2007,12,03,16,06,12.70
2007,12,03,16,07,12.70
2007,12,03,16,08,12.70
2007,12,03,16,09,12.60
2007,12,03,16,10,12.60
2007,12,03,16,11,12.60
2007,12,03,16,12,12.60
2007,12,03,16,13,12.50
2007,12,03,16,14,12.50
2007,12,03,16,15,12.60
2007,12,03,16,16,12.60
2007,12,03,16,17,12.60
2007,12,03,16,18,12.60
2007,12,03,16,19,12.60
2007,12,03,16,20,12.70
2007,12,03,16,21,12.70
2007,12,03,16,22,12.70
2007,12,03,16,23,12.70
2007,12,03,16,24,12.70
2007,12,03,16,25,12.70
2007,12,03,16,26,12.70
2007,12,03,16,27,12.70
2007,12,03,16,28,12.70
2007,12,03,16,29,12.70
2007,12,03,16,30,12.70
2007,12,03,16,31,12.70
2007,12,03,16,32,12.70
2007,12,03,16,33,12.70
2007,12,03,16,34,12.70
2007,12,03,16,35,12.70
2007,12,03,16,36,12.70
2007,12,03,16,37,12.70
2007,12,03,16,38,12.70
2007,12,03,16,39,12.80
2007,12,03,16,40,12.80
2007,12,03,16,41,12.80
2007,12,03,16,42,12.80
2007,12,03,16,43,12.90
2007,12,03,16,44,12.90
2007,12,03,16,45,12.90
2007,12,03,16,46,12.90
2007,12,03,16,47,12.90
2007,12,03,16,48,12.90
2007,12,03,16,49,13.00
2007,12,03,16,50,13.00
2007,12,03,16,51,13.00
2007,12,03,16,52,13.00
2007,12,03,16,53,13.00
2007,12,03,16,54,13.00
2007,12,03,16,55,13.00
2007,12,03,16,56,13.00
2007,12,03,16,57,12.90
2007,12,03,16,58,12.90
2007,12,03,16,59,12.90
2007,12,03,17,00,12.90
2007,12,03,17,01,12.90
2007,12,03,17,02,13.00
2007,12,03,17,03,13.00
2007,12,03,17,04,13.00
2007,12,03,17,05,13.00
2007,12,03,17,06,13.00
2007,12,03,17,07,13.00
2007,12,03,17,08,13.00
2007,12,03,17,09,13.10
2007,12,03,17,10,13.10
2007,12,03,17,11,13.10
2007,12,03,17,12,13.10
2007,12,03,17,13,13.10
2007,12,03,17,14,13.10
2007,12,03,17,15,13.00
2007,12,03,17,16,13.10
2007,12,03,17,17,13.10
2007,12,03,17,18,13.10
2007,12,03,17,19,13.10
2007,12,03,17,20,13.00
2007,12,03,17,21,13.00
2007,12,03,17,22,13.00
2007,12,03,17,23,12.90
2007,12,03,17,24,12.90
2007,12,03,17,25,12.90
2007,12,03,17,26,12.90
2007,12,03,17,27,12.90
2007,12,03,17,28,12.90
2007,12,03,17,29,12.90
2007,12,03,17,30,12.90
2007,12,03,17,31,12.90
2007,12,03,17,32,12.90
2007,12,03,17,33,12.90
2007,12,03,17,34,12.90
2007,12,03,17,35,12.90
2007,12,03,17,36,12.90
2007,12,03,17,37,13.00
2007,12,03,17,38,12.90
2007,12,03,17,39,12.90
2007,12,03,17,40,12.80
2007,12,03,17,41,12.80
2007,12,03,17,42,12.80
2007,12,03,17,43,12.90
2007,12,03,17,44,12.90
2007,12,03,17,45,12.90
2007,12,03,17,46,13.00
2007,12,03,17,47,13.00